TimeCST,TemperatureF,Dew PointF,Humidity,Sea Level PressureIn,VisibilityMPH,Wind Direction,Wind SpeedMPH,Gust SpeedMPH,PrecipitationIn,Events,Conditions,WindDirDegrees,DateUTC
12:53 AM,28.0,8.1,43,30.02,10.0,SE,10.4,-,N/A,,Overcast,130,2013-03-04 06:53:00
1:53 AM,28.0,9.0,45,30.01,10.0,ESE,8.1,-,N/A,,Overcast,120,2013-03-04 07:53:00
2:53 AM,27.0,9.0,47,29.99,10.0,ESE,9.2,-,N/A,,Overcast,120,2013-03-04 08:53:00
3:53 AM,27.0,10.0,49,29.97,10.0,East,10.4,18.4,N/A,,Overcast,100,2013-03-04 09:53:00
4:53 AM,27.0,10.0,49,29.98,10.0,ESE,8.1,-,N/A,,Overcast,110,2013-03-04 10:53:00
5:53 AM,25.0,12.9,60,29.99,8.0,SE,15.0,19.6,0.00,Snow,Light Snow,130,2013-03-04 11:53:00
6:53 AM,24.1,16.0,71,29.99,3.0,SE,11.5,-,0.00,Snow,Light Snow,130,2013-03-04 12:53:00
6:56 AM,24.8,15.8,69,29.95,2.5,SE,11.5,-,0.00,Snow,Light Snow,130,2013-03-04 12:56:00
7:05 AM,24.8,17.6,74,29.95,1.0,ESE,10.4,-,0.00,Snow,Light Snow,120,2013-03-04 13:05:00
7:14 AM,23.0,17.6,80,29.95,0.8,ESE,9.2,-,0.00,Snow,Light Snow,120,2013-03-04 13:14:00
7:53 AM,23.0,19.0,85,29.99,0.8,ESE,9.2,-,0.00,Snow,Light Snow,110,2013-03-04 13:53:00
8:11 AM,23.0,17.6,80,29.96,1.0,ESE,10.4,-,0.00,Snow,Light Snow,110,2013-03-04 14:11:00
8:53 AM,23.0,19.0,85,30.01,0.8,ESE,10.4,-,0.00,Snow,Light Snow,120,2013-03-04 14:53:00
9:51 AM,23.0,17.6,80,29.96,1.2,East,9.2,-,0.01,Snow,Light Snow,100,2013-03-04 15:51:00
9:53 AM,23.0,18.0,81,30.00,1.5,East,9.2,-,0.01,Snow,Light Snow,100,2013-03-04 15:53:00
9:56 AM,23.0,17.6,80,29.96,2.0,ESE,9.2,-,0.00,Snow,Light Snow,110,2013-03-04 15:56:00
10:05 AM,23.0,19.4,86,29.96,5.0,ESE,9.2,-,0.00,Snow,Light Snow,110,2013-03-04 16:05:00
10:41 AM,24.8,17.6,74,29.96,2.5,ESE,15.0,18.4,0.00,Snow,Light Snow,110,2013-03-04 16:41:00
10:53 AM,24.1,16.0,71,30.00,2.5,ESE,9.2,17.3,0.00,Snow,Light Snow,110,2013-03-04 16:53:00
11:53 AM,25.0,15.1,66,29.99,2.5,East,10.4,-,0.01,Snow,Light Snow,100,2013-03-04 17:53:00
12:16 PM,24.8,15.8,69,29.94,4.0,East,10.4,18.4,0.00,Snow,Light Snow,100,2013-03-04 18:16:00
12:48 PM,24.8,17.6,74,29.94,4.0,East,10.4,-,0.00,Snow,Light Snow,90,2013-03-04 18:48:00
12:53 PM,24.1,17.1,75,29.98,6.0,East,9.2,-,0.00,,Overcast,90,2013-03-04 18:53:00
1:53 PM,25.0,17.1,72,29.97,10.0,East,9.2,-,0.00,,Overcast,90,2013-03-04 19:53:00
2:53 PM,25.0,15.1,66,29.99,10.0,ESE,8.1,19.6,N/A,,Overcast,110,2013-03-04 20:53:00
3:53 PM,25.0,16.0,69,30.00,10.0,ESE,11.5,-,N/A,,Overcast,120,2013-03-04 21:53:00
4:10 PM,24.8,15.8,69,29.96,10.0,ESE,12.7,17.3,N/A,,Overcast,110,2013-03-04 22:10:00
4:53 PM,25.0,17.1,72,30.00,10.0,East,8.1,-,N/A,,Overcast,100,2013-03-04 22:53:00
5:53 PM,25.0,18.0,75,30.01,8.0,East,9.2,-,0.00,,Overcast,90,2013-03-04 23:53:00
6:53 PM,24.1,19.0,81,30.02,3.0,East,4.6,-,0.01,Snow,Light Snow,90,2013-03-05 00:53:00
7:10 PM,24.8,19.4,80,29.98,5.0,East,5.8,-,0.00,Snow,Light Snow,100,2013-03-05 01:10:00
7:53 PM,24.1,19.0,81,30.04,2.0,ESE,4.6,-,0.01,Snow,Light Snow,110,2013-03-05 01:53:00
8:03 PM,24.8,19.4,80,30.01,2.0,ESE,3.5,-,0.00,Snow,Light Snow,110,2013-03-05 02:03:00
8:10 PM,24.8,19.4,80,30.01,1.2,East,4.6,-,0.00,Snow,Light Snow,100,2013-03-05 02:10:00
8:23 PM,24.8,21.2,86,30.01,0.8,East,4.6,-,0.01,Snow,Light Snow,100,2013-03-05 02:23:00
8:53 PM,24.1,21.0,88,30.06,1.5,Calm,Calm,-,0.03,Snow,Light Snow,0,2013-03-05 02:53:00
9:03 PM,24.8,21.2,86,30.02,0.5,East,3.5,-,0.01,Fog-Snow,Snow,80,2013-03-05 03:03:00
9:19 PM,24.8,21.2,86,30.02,1.8,East,4.6,-,0.02,Snow,Light Snow,80,2013-03-05 03:19:00
9:32 PM,24.8,21.2,86,30.02,2.0,East,4.6,-,0.02,Snow,Light Snow,80,2013-03-05 03:32:00
9:41 PM,24.8,21.2,86,30.01,4.0,East,5.8,-,0.02,Snow,Light Snow,100,2013-03-05 03:41:00
9:53 PM,24.1,21.0,88,30.06,2.5,East,5.8,-,0.02,Snow,Light Snow,100,2013-03-05 03:53:00
10:29 PM,24.8,21.2,86,30.02,1.2,ESE,5.8,-,0.01,Snow,Light Snow,110,2013-03-05 04:29:00
10:49 PM,24.8,21.2,86,30.01,0.8,East,5.8,-,0.02,Snow,Light Snow,100,2013-03-05 04:49:00
10:53 PM,24.1,21.9,91,30.05,0.8,East,4.6,-,0.02,Snow,Light Snow,100,2013-03-05 04:53:00
11:04 PM,24.8,21.2,86,30.01,1.0,ESE,5.8,-,0.01,Snow,Light Snow,110,2013-03-05 05:04:00
11:33 PM,24.8,21.2,86,30.00,0.5,East,6.9,-,0.03,Fog-Snow,Snow,100,2013-03-05 05:33:00
11:46 PM,24.8,21.2,86,29.99,1.5,East,4.6,-,0.03,Snow,Light Snow,100,2013-03-05 05:46:00
11:53 PM,24.1,21.9,91,30.03,2.5,East,5.8,-,0.03,Snow,Light Snow,90,2013-03-05 05:53:00